Location: Newark
(43.6583°N, 1.6617°E)
Time: 01:07:58
(UTC+00:00)

Vanguard 1 Rocket - Visible Passes

Search period start: 24 August 2019 00:00
Search period end: 03 September 2019 00:00
Orbit: 652 x 4224 km, 34.3° (Epoch: 22 August)

Date Brightness Start Highest point End Pass type
(mag) Time Alt. Az. Time Alt. Az. Time Alt. Az.
24 Aug 7.9 02:58:25 30° S 02:58:37 30° S 03:03:53 10° ESE visible
25 Aug 9.3 01:51:18 12° ESE 01:51:18 12° ESE 01:51:54 10° ESE visible
25 Aug 8.3 04:08:36 15° WSW 04:12:11 32° S 04:18:42 10° ESE visible
26 Aug 7.9 03:01:30 30° S 03:01:30 30° S 03:06:33 10° ESE visible
27 Aug 9.3 01:54:26 12° ESE 01:54:26 12° ESE 01:54:51 10° ESE visible
27 Aug 8.4 04:11:44 14° WSW 04:15:04 28° S 04:20:58 10° SE visible
28 Aug 8.0 03:04:41 28° S 03:04:41 28° S 03:09:09 10° ESE visible
29 Aug 9.5 01:57:40 10° ESE 01:57:40 10° ESE 01:57:43 10° ESE visible
29 Aug 8.5 04:14:58 14° SW 04:17:57 23° S 04:23:03 10° SE visible
30 Aug 8.2 03:08:00 24° S 03:08:00 24° S 03:11:38 10° SE visible
31 Aug 8.6 04:18:21 13° SW 04:20:51 17° SSW 04:24:49 10° SSE visible
01 Sep 8.6 03:11:26 19° SSE 03:11:26 19° SSE 03:13:58 10° SE visible
02 Sep 8.8 04:21:52 10° SW 04:23:42 12° SSW 04:25:55 10° S visible
